Location: Julian California
(33.0790°N, 116.6010°W)
Time: 05:43:35
(UTC-07:00)

Lacrosse 5 rocket - Pass Details

Date: 19 May 2017
Orbit: 459 x 644 km, 57.0° (Epoch: 21 July)

Event Time Altitude Azimuth Distance (km) Brightness Sun altitude
Rises 20:20:33 0° 255° (WSW) 2,797 5.7 -8.0°
Reaches altitude 10° 20:23:15 10° 272° (W) 1,933 5.2 -8.4°
Maximum altitude 20:26:34 21° 321° (NW) 1,408 4.5 -9.0°
Drops below altitude 10° 20:30:00 10° 9° (N) 2,004 4.5 -9.7°
Sets 20:32:52 0° 26° (NNE) 2,933 5.1 -10.2°
